Location: Marysville Observatory
(48.1092°N, 122.1645°W)
Time: 03:21:53
(UTC-07:00)

Amateur Radio Satellites - All Passes

Search period start: 28 May 2017 02:51
Search period end: 29 May 2017 02:51
Location: Marysville Observatory, 48.1092°N, 122.1645°W

Satellite Date Start Highest point End Downlink Frequencies (MHz)
Time Altitude Azimuth
CUBESAT XI-V 28 May 03:08:20 03:10:03 12° 55° (NE) 03:11:47 437.345
ISS 28 May 03:37:47 03:39:38 14° 224° (SW) 03:41:28 437.550
BUGSAT 1 28 May 03:46:23 03:47:40 11° 303° (WNW) 03:48:58 437.445
ITAMSAT 1 28 May 03:47:26 03:51:45 26° 93° (E) 03:56:03 435.822/435.867
AO-85 28 May 03:51:21 03:53:24 13° 112° (ESE) 03:55:24 145.980
MOZHAYETS 4 28 May 03:51:33 03:56:09 70° 257° (WSW) 04:00:48
ITUPSAT 1 28 May 03:52:04 03:56:34 41° 262° (W) 04:01:07 437.325
AO-7 28 May 03:57:47 04:05:15 34° 96° (E) 04:12:41 .
Gurwin Techsat 1B 28 May 04:12:26 04:17:17 37° 295° (WNW) 04:22:08 435.225
Oscar 19 28 May 04:22:07 04:25:52 21° 302° (WNW) 04:29:37 437.125/150
BEESAT 28 May 04:25:42 04:29:17 21° 268° (W) 04:32:53 436.000
O/OREOS (USA 219) 28 May 04:28:57 04:33:32 80° 114° (ESE) 04:38:09 437.305
KKS-1 28 May 04:32:35 04:36:54 54° 71° (ENE) 04:41:14 437.445
PCSat 28 May 04:33:42 04:39:06 67° 241° (WSW) 04:44:29 145.827
CUBESAT XI-V 28 May 04:41:55 04:46:37 76° 74° (ENE) 04:51:21 437.345
RS-15 28 May 04:49:20 05:01:19 55° 325° (NW) 05:13:26 29.354- 29.394
YUBILEINY 28 May 04:53:02 04:56:47 13° 315° (NW) 05:00:35 435.215
STARS 28 May 04:58:47 05:02:56 45° 69° (ENE) 05:07:07 437.465
SO-50 28 May 04:59:08 05:02:15 18° 28° (NNE) 05:05:22 436.795
BEESAT 2 28 May 05:18:40 05:20:37 13° 110° (ESE) 05:22:37 435.950
ITAMSAT 1 28 May 05:26:26 05:31:28 50° 292° (WNW) 05:36:29 435.822/435.867
AO-85 28 May 05:29:10 05:33:16 75° 308° (NW) 05:37:14 145.980
BEESAT 3 28 May 05:32:39 05:36:26 45° 121° (ESE) 05:40:16 437.485
AO-7 28 May 05:50:16 05:58:30 65° 296° (WNW) 06:06:44 .
CUTE-I 28 May 05:57:58 05:58:37 10° 84° (E) 05:59:16 437.470
O/OREOS (USA 219) 28 May 06:10:28 06:13:33 17° 314° (NW) 06:16:38 437.305
KKS-1 28 May 06:10:47 06:13:48 18° 269° (W) 06:16:50 437.445
PCSat 28 May 06:20:20 06:21:28 11° 259° (W) 06:22:36 145.827
CUBESAT XI-V 28 May 06:22:00 06:24:33 14° 272° (W) 06:27:06 437.345
XW-2D 28 May 06:25:25 06:28:04 17° 91° (E) 06:30:41 145.860 - 145.880
XW-2B 28 May 06:33:12 06:36:08 20° 93° (E) 06:39:02 145.730 - 145.750
STARS 28 May 06:36:12 06:39:30 21° 267° (W) 06:42:49 437.465
NUDT-PHONESAT 28 May 06:38:04 06:40:43 18° 92° (E) 06:43:21 437.300
SO-50 28 May 06:38:59 06:43:31 70° 50° (NE) 06:48:01 436.795
XW-2F 28 May 06:44:15 06:47:30 26° 94° (E) 06:50:44 145.980 - 146.000
XW-2C 28 May 06:46:37 06:50:01 28° 95° (E) 06:53:22 145.795 - 145.815
STRAND 1 28 May 06:47:39 06:52:15 36° 65° (ENE) 06:56:55 437.568
KAITUO 1B 28 May 06:48:49 06:51:57 24° 94° (E) 06:55:03 145.475/437.950
DOVE 4 28 May 06:52:21 06:56:29 59° 101° (ESE) 07:00:42 437.250
BEESAT 2 28 May 06:53:49 06:57:48 77° 308° (NW) 07:01:53 435.950
RS-15 28 May 07:06:07 07:17:16 36° 357° (N) 07:28:14 29.354- 29.394
BEESAT 3 28 May 07:10:43 07:14:10 27° 321° (NW) 07:17:41 437.485
AO-85 28 May 07:11:54 07:14:19 15° 330° (NNW) 07:16:44 145.980
LilacSat-2 28 May 07:26:32 07:30:27 85° 106° (ESE) 07:34:19 437.200
HO-68 28 May 07:28:23 07:33:55 23° 90° (E) 07:39:23 435.675
CUTE-I 28 May 07:34:17 07:39:38 70° 103° (ESE) 07:44:58 437.470
AO-7 28 May 07:44:16 07:49:47 20° 319° (NW) 07:55:19 .
XW-2D 28 May 07:58:47 08:02:28 42° 289° (WNW) 08:06:06 145.860 - 145.880
CUTE 1.7 + AOD 2 28 May 08:03:37 08:07:27 31° 95° (E) 08:11:15 437.475
NO-84 28 May 08:06:24 08:09:48 22° 131° (SE) 08:13:08 435.350 FM
XW-2B 28 May 08:06:53 08:10:27 36° 290° (WNW) 08:13:59 145.730 - 145.750
M-CUBED/EXP-1 PRIME 28 May 08:08:02 08:12:05 57° 67° (ENE) 08:15:50 437.505
AAUSAT CUBESAT 2 28 May 08:09:31 08:11:03 12° 87° (E) 08:12:36 437.432
NUDT-PHONESAT 28 May 08:11:15 08:14:48 40° 289° (WNW) 08:18:20 437.300
XW-2A 28 May 08:11:56 08:15:01 30° 96° (E) 08:18:06 145.665 - 145.685
XW-2F 28 May 08:18:17 08:21:37 29° 292° (WNW) 08:24:57 145.980 - 146.000
SO-50 28 May 08:20:28 08:23:29 18° 248° (WSW) 08:26:29 436.795
XW-2C 28 May 08:20:53 08:24:08 26° 293° (WNW) 08:27:23 145.795 - 145.815
KAITUO 1B 28 May 08:22:37 08:25:58 30° 292° (WNW) 08:29:20 145.475/437.950
STRAND 1 28 May 08:26:49 08:31:27 35° 264° (W) 08:36:07 437.568
AO-73 28 May 08:27:31 08:28:21 10° 86° (E) 08:29:09 145.935
DOVE 4 28 May 08:31:14 08:33:48 16° 299° (WNW) 08:36:24 437.250
BEESAT 2 28 May 08:33:38 08:36:15 16° 330° (NNW) 08:38:53 435.950
FO-29 28 May 08:38:17 08:41:28 16° 53° (NE) 08:44:45 435.910
ZACube-1 28 May 08:40:55 08:43:47 16° 89° (E) 08:46:38 437.345
UNISAT 6 28 May 08:45:05 08:47:08 13° 57° (ENE) 08:49:13 437.425
SEEDS 28 May 08:49:00 08:53:12 61° 101° (E) 08:57:20 437.485
CUBEBUG 2 28 May 09:00:39 09:05:13 63° 101° (E) 09:09:52 437.445
LilacSat-2 28 May 09:03:02 09:04:06 11° 301° (WNW) 09:05:10 437.200
UWE-3 28 May 09:07:00 09:11:26 46° 98° (E) 09:15:55 435.000/436.395/437.385
HO-68 28 May 09:15:10 09:22:24 80° 290° (WNW) 09:29:36 435.675
CUTE-I 28 May 09:15:17 09:19:11 21° 302° (WNW) 09:23:04 437.470
RS-15 28 May 09:21:31 09:33:26 49° 31° (NNE) 09:44:54 29.354- 29.394
Oscar 11 28 May 09:31:59 09:36:00 34° 96° (E) 09:39:58 .
CUTE 1.7 + AOD 2 28 May 09:39:32 09:43:13 29° 294° (WNW) 09:46:52 437.475
NO-84 28 May 09:42:40 09:47:03 84° 328° (NNW) 09:51:17 435.350 FM
AAUSAT CUBESAT 2 28 May 09:42:53 09:47:03 74° 286° (WNW) 09:51:09 437.432
M-CUBED/EXP-1 PRIME 28 May 09:44:22 09:46:46 15° 262° (W) 09:49:04 437.505
XW-2A 28 May 09:45:01 09:47:37 20° 294° (WNW) 09:50:13 145.665 - 145.685
DELFI C3 28 May 09:45:34 09:47:31 13° 89° (E) 09:49:28 145.870
TIGRISAT 28 May 09:46:49 09:50:53 43° 69° (ENE) 09:55:03 435.000
PRISM 28 May 09:50:25 09:54:31 66° 73° (ENE) 09:58:37 437.425
AO-73 28 May 10:00:41 10:05:16 84° 104° (ESE) 10:09:51 145.935
ZACube-1 28 May 10:15:57 10:20:28 65° 287° (WNW) 10:25:01 437.345
UNISAT 6 28 May 10:18:53 10:23:11 84° 256° (WSW) 10:27:37 437.425
FO-29 28 May 10:20:37 10:25:48 86° 257° (WSW) 10:31:17 435.910
AIST 2D 28 May 10:25:07 10:27:05 14° 63° (ENE) 10:29:03 435.315
SEEDS 28 May 10:25:48 10:28:26 16° 299° (WNW) 10:31:03 437.485
EO-79 28 May 10:26:30 10:27:34 11° 56° (NE) 10:28:39 145.935-145.965
AO-85 28 May 10:37:54 10:38:50 11° 21° (NNE) 10:39:46 145.980
CUBEBUG 2 28 May 10:38:15 10:41:24 19° 299° (WNW) 10:44:35 437.445
UWE-3 28 May 10:43:59 10:47:38 24° 296° (WNW) 10:51:19 435.000/436.395/437.385
EO-88 28 May 10:52:23 10:55:59 49° 100° (E) 10:59:34 145.990 - 145.960
YUBILEINY 28 May 10:57:47 11:04:59 27° 60° (ENE) 11:12:08 435.215
HO-68 28 May 11:04:05 11:09:07 21° 311° (NW) 11:14:07 435.675
NANOSAT C BR1 28 May 11:07:44 11:11:06 24° 64° (ENE) 11:14:28 145.865
Oscar 11 28 May 11:08:19 11:12:01 28° 294° (WNW) 11:15:43 .
POLYITAN 1 28 May 11:13:53 11:17:31 29° 66° (ENE) 11:21:12 437.675
DUCHIFAT 1 28 May 11:17:09 11:20:38 26° 65° (ENE) 11:24:09 145.980
DELFI C3 28 May 11:18:48 11:22:42 59° 286° (WNW) 11:26:32 145.870
NO-84 28 May 11:21:08 11:25:05 34° 348° (NNW) 11:28:49 435.350 FM
QB50P2 28 May 11:22:22 11:26:16 38° 69° (ENE) 11:30:11 145.880/145.840
TIGRISAT 28 May 11:24:31 11:27:48 21° 268° (W) 11:31:09 435.000
PRISM 28 May 11:28:12 11:30:14 13° 270° (W) 11:32:15 437.425
BUGSAT 1 28 May 11:29:12 11:30:50 12° 58° (ENE) 11:32:31 437.445
LO-87 28 May 11:29:28 11:32:06 19° 93° (E) 11:34:43 145.935 - 145.965
RS-15 28 May 11:34:44 11:46:57 75° 239° (WSW) 11:58:33 29.354- 29.394
AO-73 28 May 11:38:27 11:40:52 14° 302° (WNW) 11:43:18 145.935
ESTCUBE 1 28 May 11:42:06 11:45:16 19° 91° (E) 11:48:25 437.505/2401.250
BEESAT 2 28 May 11:55:15 11:55:27 10° 18° (NNE) 11:55:40 435.950
AIST 2D 28 May 11:56:28 11:59:54 49° 260° (W) 12:03:23 435.315
EO-79 28 May 11:58:25 12:02:37 82° 74° (ENE) 12:06:50 145.935-145.965
BEESAT 3 28 May 12:09:07 12:11:54 17° 32° (NNE) 12:14:39 437.485
FO-29 28 May 12:10:09 12:11:58 12° 276° (W) 12:13:49 435.910
AO-85 28 May 12:16:35 12:20:19 37° 44° (NE) 12:24:11 145.980
Gurwin Techsat 1B 28 May 12:20:20 12:23:09 15° 54° (NE) 12:25:58 435.225
Oscar 19 28 May 12:24:33 12:28:32 23° 60° (ENE) 12:32:32 437.125/150
EO-88 28 May 12:27:06 12:29:18 15° 298° (WNW) 12:31:29 145.990 - 145.960
VELOX 1 28 May 12:29:20 12:31:50 15° 89° (E) 12:34:19 145.980
NANOSAT C BR1 28 May 12:42:44 12:46:37 38° 262° (W) 12:50:34 145.865
POLYITAN 1 28 May 12:49:34 12:53:16 30° 265° (W) 12:57:01 437.675
DUCHIFAT 1 28 May 12:52:25 12:56:12 33° 263° (W) 13:00:01 145.980
YUBILEINY 28 May 12:54:03 13:02:56 84° 263° (W) 13:11:47 435.215
O/OREOS (USA 219) 28 May 12:56:26 13:00:40 37° 56° (NE) 13:04:51 437.305
QB50P2 28 May 12:58:49 13:02:11 23° 267° (W) 13:05:35 145.880/145.840
DX 1 28 May 12:59:28 13:00:19 10° 87° (E) 13:01:11 434.975-435.025
NO-84 28 May 12:59:39 13:03:26 33° 9° (N) 13:06:57 435.350 FM
BUGSAT 1 28 May 13:01:37 13:05:37 79° 256° (WSW) 13:09:40 437.445
LO-87 28 May 13:02:25 13:05:38 33° 290° (WNW) 13:08:51 145.935 - 145.965
AO-7 28 May 13:11:50 13:17:16 20° 41° (NE) 13:22:42 .
ESTCUBE 1 28 May 13:17:59 13:22:24 54° 289° (WNW) 13:26:47 437.505/2401.250
BEESAT 2 28 May 13:30:50 13:34:29 30° 41° (NE) 13:38:07 435.950
ITAMSAT 1 28 May 13:34:37 13:35:19 10° 49° (NE) 13:36:01 435.822/435.867
EO-79 28 May 13:37:51 13:38:58 11° 273° (W) 13:40:05 145.935-145.965
SPROUT 28 May 13:42:18 13:46:36 81° 103° (ESE) 13:50:53 437.525
BEESAT 3 28 May 13:46:01 13:50:05 86° 52° (NE) 13:54:04 437.485
RS-15 28 May 13:49:03 13:57:11 22° 263° (W) 14:05:06 29.354- 29.394
Gurwin Techsat 1B 28 May 13:56:58 14:02:16 79° 73° (ENE) 14:07:37 435.225
AO-85 28 May 13:57:06 14:00:38 29° 242° (WSW) 14:04:17 145.980
50 SAT 28 May 14:00:00 14:03:25 69° 102° (ESE) 14:06:47 437.505
Oscar 19 28 May 14:02:19 14:07:27 61° 258° (WSW) 14:12:38 437.125/150
VELOX 1 28 May 14:04:22 14:08:44 65° 287° (WNW) 14:13:04 145.980
UKube-1 28 May 14:20:40 14:24:52 48° 100° (E) 14:29:02 .
DX 1 28 May 14:32:47 14:37:09 89° 283° (WNW) 14:41:29 434.975-435.025
O/OREOS (USA 219) 28 May 14:36:04 14:39:57 29° 255° (WSW) 14:43:48 437.305
NO-84 28 May 14:37:28 14:41:28 81° 30° (NNE) 14:45:06 435.350 FM
YUBILEINY 28 May 14:52:31 14:58:22 20° 285° (WNW) 15:04:14 435.215
AO-7 28 May 15:00:23 15:08:31 64° 64° (ENE) 15:16:43 .
BEESAT 2 28 May 15:08:31 15:12:20 39° 240° (WSW) 15:16:05 435.950
ITAMSAT 1 28 May 15:08:39 15:13:41 56° 70° (ENE) 15:18:46 435.822/435.867
SPROUT 28 May 15:19:50 15:21:54 13° 302° (WNW) 15:23:58 437.525
BEESAT 3 28 May 15:25:35 15:27:01 12° 251° (WSW) 15:28:26 437.485
50 SAT 28 May 15:35:15 15:35:46 10° 300° (WNW) 15:36:16 437.505
Gurwin Techsat 1B 28 May 15:39:34 15:42:51 16° 272° (W) 15:46:08 435.225
MOZHAYETS 4 28 May 15:43:28 15:47:05 22° 92° (E) 15:50:39
ITUPSAT 1 28 May 15:48:32 15:53:04 38° 98° (E) 15:57:32 437.325
UKube-1 28 May 15:57:23 16:00:35 21° 298° (WNW) 16:03:45 .
DX 1 28 May 16:10:54 16:12:39 12° 304° (WNW) 16:14:26 434.975-435.025
NO-84 28 May 16:15:54 16:18:32 18° 231° (SW) 16:21:02 435.350 FM
BEESAT 28 May 16:20:24 16:25:13 76° 103° (ESE) 16:30:01 436.000
DOVE 4 28 May 16:26:44 16:28:26 12° 58° (ENE) 16:30:07 437.250
CUBESAT XI-V 28 May 16:36:13 16:38:49 15° 88° (E) 16:41:23 437.345
ITAMSAT 1 28 May 16:49:29 16:53:31 23° 268° (W) 16:57:33 435.822/435.867
AO-7 28 May 16:54:24 17:01:46 35° 264° (W) 17:09:13 .
XW-2D 28 May 17:10:33 17:12:51 16° 62° (ENE) 17:15:10 145.860 - 145.880
XW-2B 28 May 17:18:12 17:20:48 18° 63° (ENE) 17:23:27 145.730 - 145.750
MOZHAYETS 4 28 May 17:20:00 17:24:29 48° 290° (WNW) 17:28:57
CUTE-I 28 May 17:21:07 17:25:28 26° 61° (ENE) 17:29:49 437.470
NUDT-PHONESAT 28 May 17:21:20 17:23:32 15° 62° (ENE) 17:25:44 437.300
ITUPSAT 1 28 May 17:26:35 17:30:46 30° 296° (WNW) 17:34:56 437.325
XW-2F 28 May 17:28:40 17:31:39 22° 65° (ENE) 17:34:37 145.980 - 146.000
XW-2C 28 May 17:31:22 17:34:29 24° 66° (ENE) 17:37:37 145.795 - 145.815
KAITUO 1B 28 May 17:32:27 17:35:15 20° 65° (ENE) 17:38:05 145.475/437.950
KKS-1 28 May 17:56:05 18:00:30 66° 102° (ESE) 18:04:55 437.445
BEESAT 28 May 17:59:24 18:02:26 17° 302° (WNW) 18:05:27 436.000
DOVE 4 28 May 18:01:02 18:05:34 90° 313° (NW) 18:09:52 437.250
HO-68 28 May 18:01:14 18:07:03 28° 54° (NE) 18:12:52 435.675
LilacSat-2 28 May 18:11:21 18:15:11 68° 74° (ENE) 18:19:03 437.200
CUBESAT XI-V 28 May 18:12:04 18:16:44 72° 286° (WNW) 18:21:19 437.345
STARS 28 May 18:20:22 18:24:40 52° 101° (E) 18:28:58 437.465
CUBEBUG 2 28 May 18:29:57 18:30:29 10° 55° (NE) 18:31:02 437.445
XW-2D 28 May 18:42:54 18:46:38 53° 260° (W) 18:50:26 145.860 - 145.880
XW-2A 28 May 18:47:04 18:49:30 19° 65° (ENE) 18:51:58 145.665 - 145.685
XW-2B 28 May 18:51:01 18:54:41 45° 261° (W) 18:58:24 145.730 - 145.750
NUDT-PHONESAT 28 May 18:53:23 18:57:01 52° 260° (W) 19:00:44 437.300
CUTE 1.7 + AOD 2 28 May 18:59:21 19:03:15 35° 68° (ENE) 19:07:11 437.475
CUTE-I 28 May 19:00:02 19:05:13 53° 259° (W) 19:10:25 437.470
XW-2F 28 May 19:02:05 19:05:35 35° 263° (W) 19:09:08 145.980 - 146.000
AAUSAT CUBESAT 2 28 May 19:02:54 19:05:06 14° 60° (ENE) 19:07:19 437.432
XW-2C 28 May 19:05:08 19:08:34 31° 264° (W) 19:12:02 145.795 - 145.815
KAITUO 1B 28 May 19:05:29 19:09:02 38° 263° (W) 19:12:37 145.475/437.950
PCSat 28 May 19:18:29 19:23:46 55° 117° (ESE) 19:29:04 145.827
Tancredo 1 28 May 19:25:04 19:26:42 14° 136° (SE) 19:28:19 437.200
AO-73 28 May 19:25:58 19:27:59 13° 57° (ENE) 19:30:00 145.935
KKS-1 28 May 19:33:46 19:36:35 17° 301° (WNW) 19:39:25 437.445
ZACube-1 28 May 19:40:13 19:43:15 19° 61° (ENE) 19:46:20 437.345
DOVE 4 28 May 19:43:16 19:43:50 10° 273° (W) 19:44:25 437.250
SEEDS 28 May 19:43:33 19:47:45 65° 74° (ENE) 19:52:00 437.485
HO-68 28 May 19:46:56 19:54:08 77° 254° (WSW) 20:01:22 435.675
LilacSat-2 28 May 19:48:36 19:49:55 11° 272° (W) 19:51:14 437.200
CUBESAT XI-V 28 May 19:51:56 19:53:15 11° 305° (NW) 19:54:33 437.345
STARS 28 May 19:57:29 20:00:40 20° 299° (WNW) 20:03:51 437.465
CUBEBUG 2 28 May 20:02:07 20:06:17 77° 74° (ENE) 20:10:36 437.445
UWE-3 28 May 20:07:17 20:11:23 54° 72° (ENE) 20:15:39 435.000/436.395/437.385
ISS 28 May 20:18:55 20:21:44 26° 142° (SE) 20:24:34 437.550
XW-2A 28 May 20:19:03 20:22:05 31° 263° (W) 20:25:09 145.665 - 145.685
Oscar 11 28 May 20:29:51 20:33:56 41° 69° (ENE) 20:38:02 .
STRAND 1 28 May 20:32:51 20:37:59 61° 102° (ESE) 20:43:04 437.568
DELFI C3 28 May 20:34:37 20:36:43 14° 61° (ENE) 20:38:51 145.870
CUTE 1.7 + AOD 2 28 May 20:35:34 20:39:09 26° 266° (W) 20:42:46 437.475
AAUSAT CUBESAT 2 28 May 20:35:51 20:40:02 73° 258° (WSW) 20:44:14 437.432
Tancredo 1 28 May 20:58:55 21:01:59 74° 154° (SSE) 21:05:03 437.200
AO-73 28 May 20:59:17 21:03:33 84° 260° (W) 21:07:57 145.935
PCSat 28 May 21:02:34 21:07:26 33° 318° (NW) 21:12:20 145.827
ZACube-1 28 May 21:14:59 21:19:08 53° 260° (W) 21:23:26 437.345
M-CUBED/EXP-1 PRIME 28 May 21:18:10 21:20:27 17° 99° (E) 21:22:43 437.505
SEEDS 28 May 21:21:37 21:23:54 14° 272° (W) 21:26:11 437.485
FO-29 28 May 21:26:33 21:29:07 12° 84° (E) 21:31:46 435.910
EO-88 28 May 21:33:22 21:36:45 36° 70° (ENE) 21:40:10 145.990 - 145.960
HO-68 28 May 21:38:58 21:43:03 16° 275° (W) 21:47:09 435.675
CUBEBUG 2 28 May 21:41:59 21:43:31 12° 274° (W) 21:45:04 437.445
UWE-3 28 May 21:45:27 21:48:13 17° 270° (W) 21:51:04 435.000/436.395/437.385
ISS 28 May 21:54:44 21:58:02 72° 341° (NNW) 22:01:20 437.550
Oscar 11 28 May 22:06:46 22:10:13 23° 267° (W) 22:13:42 .
DELFI C3 28 May 22:07:03 22:11:01 66° 258° (WSW) 22:15:00 145.870
UNISAT 6 28 May 22:07:35 22:10:37 17° 90° (E) 22:13:41 437.425
LO-87 28 May 22:09:40 22:11:42 15° 63° (ENE) 22:13:44 145.935 - 145.965
STRAND 1 28 May 22:12:49 22:16:45 22° 300° (WNW) 22:20:39 437.568
Tancredo 1 28 May 22:34:55 22:37:53 42° 354° (N) 22:40:51 437.200
SO-50 28 May 22:36:17 22:40:47 61° 124° (ESE) 22:45:17 436.795
ESTCUBE 1 28 May 22:44:41 22:48:29 27° 64° (ENE) 22:52:17 437.505/2401.250
PCSat 28 May 22:50:19 22:52:36 13° 343° (NNW) 22:54:54 145.827
M-CUBED/EXP-1 PRIME 28 May 22:52:05 22:55:04 31° 297° (WNW) 22:57:58 437.505
PRISM 28 May 23:03:13 23:07:17 64° 103° (ESE) 23:11:18 437.425
SPROUT 28 May 23:05:51 23:07:39 13° 58° (ENE) 23:09:27 437.525
EO-88 28 May 23:07:56 23:10:34 18° 268° (W) 23:13:13 145.990 - 145.960
FO-29 28 May 23:08:44 23:15:10 65° 102° (ESE) 23:22:23 435.910
TIGRISAT 28 May 23:10:34 23:15:09 61° 101° (E) 23:19:46 435.000
VELOX 1 28 May 23:29:36 23:32:57 22° 62° (ENE) 23:36:19 145.980
ISS 28 May 23:31:38 23:34:49 42° 1° (N) 23:37:59 437.550
LO-87 28 May 23:41:22 23:44:48 47° 261° (W) 23:48:14 145.935 - 145.965
EO-79 28 May 23:42:03 23:42:52 10° 87° (E) 23:43:41 145.935-145.965
UNISAT 6 28 May 23:43:09 23:47:43 63° 288° (WNW) 23:52:21 437.425
DX 1 28 May 23:57:19 00:00:02 16° 59° (ENE) 00:02:45 434.975-435.025
RS-15 28 May 23:59:16 00:03:08 12° 90° (E) 00:07:01 29.354- 29.394
YUBILEINY 29 May 00:05:13 00:11:47 25° 78° (ENE) 00:18:22 435.215
Tancredo 1 29 May 00:10:56 00:13:57 52° 13° (NNE) 00:16:58 437.200
SO-50 29 May 00:17:43 00:21:35 26° 324° (NW) 00:25:27 436.795
ESTCUBE 1 29 May 00:20:53 00:25:07 39° 262° (W) 00:29:24 437.505/2401.250
NANOSAT C BR1 29 May 00:23:17 00:26:51 25° 94° (E) 00:30:25 145.865
POLYITAN 1 29 May 00:30:10 00:34:03 33° 96° (E) 00:37:56 437.675
DUCHIFAT 1 29 May 00:32:25 00:36:08 28° 95° (E) 00:39:48 145.980
50 SAT 29 May 00:35:22 00:38:39 43° 71° (ENE) 00:41:57 437.505
PCSat 29 May 00:37:19 00:38:38 11° 10° (N) 00:39:57 145.827
SPROUT 29 May 00:38:41 00:42:55 86° 251° (WSW) 00:47:12 437.525
QB50P2 29 May 00:38:52 00:42:58 43° 99° (E) 00:47:03 145.880/145.840
PRISM 29 May 00:39:46 00:42:05 15° 300° (WNW) 00:44:24 437.425
BUGSAT 1 29 May 00:41:30 00:42:59 12° 88° (E) 00:44:29 437.445
TIGRISAT 29 May 00:48:11 00:51:25 19° 299° (WNW) 00:54:41 435.000
AIST 2D 29 May 00:50:58 00:54:32 67° 285° (WNW) 00:58:04 435.315
FO-29 29 May 00:54:32 00:59:54 30° 299° (WNW) 01:05:47 435.910
VELOX 1 29 May 01:04:52 01:09:07 47° 260° (W) 01:13:24 145.980
ISS 29 May 01:08:16 01:11:35 78° 23° (NNE) 01:14:51 437.550
EO-79 29 May 01:14:57 01:19:14 87° 291° (WNW) 01:23:31 145.935-145.965
UKube-1 29 May 01:18:09 01:22:25 65° 72° (ENE) 01:26:42 .
ITUPSAT 1 29 May 01:25:00 01:26:17 11° 52° (NE) 01:27:33 437.325
DX 1 29 May 01:31:25 01:35:45 66° 258° (WSW) 01:40:05 434.975-435.025
Tancredo 1 29 May 01:46:46 01:49:41 40° 212° (SSW) 01:52:35 437.200
BEESAT 29 May 01:54:12 01:57:34 20° 59° (ENE) 02:00:57 436.000
NANOSAT C BR1 29 May 01:58:45 02:02:38 35° 292° (WNW) 02:06:30 145.865
YUBILEINY 29 May 01:58:47 02:07:31 83° 279° (W) 02:16:24 435.215
RS-15 29 May 02:00:52 02:12:25 54° 113° (ESE) 02:24:10 29.354- 29.394
SO-50 29 May 02:02:16 02:03:35 11° 348° (NNW) 02:04:54 436.795
POLYITAN 1 29 May 02:06:05 02:09:46 28° 294° (WNW) 02:13:25 437.675
DUCHIFAT 1 29 May 02:08:01 02:11:47 32° 293° (WNW) 02:15:33 145.980
50 SAT 29 May 02:09:53 02:11:45 14° 269° (W) 02:13:37 437.505
Gurwin Techsat 1B 29 May 02:10:05 02:14:19 24° 92° (E) 02:18:32 435.225
Oscar 19 29 May 02:10:18 02:15:04 36° 97° (E) 02:19:46 437.125/150
BUGSAT 1 29 May 02:14:42 02:18:51 76° 285° (WNW) 02:23:02 437.445
QB50P2 29 May 02:15:12 02:18:31 22° 297° (WNW) 02:21:50 145.880/145.840
PCSat 29 May 02:19:47 02:24:08 24° 35° (NE) 02:28:28 145.827
ISS 29 May 02:45:07 02:47:48 23° 219° (SW) 02:50:29 437.550
